RH
84 92 84 92 92 93 96 100 100 100 100 99 97 94 100 85 78 70 60 47 28 18 15 18 18 17 17 16 14 17 20 26 29 30 30 36 41 48 55 76 87 97 88 86 81 64 86 90 88 94 100 100 100 95
82 93 94 88 96 95 100 100 100 100 100 100 94 93 88 79 79 62 40 25 18 14 16 21 20 15 12 12 11 12 13 16 19 24 26 29 29 44 48 64 72 86 96 92 80 84 75 100 83 83 84 100 100 100
96 89 100 93 82 94 98 100 100 100 95 100 100 90 71 80 57 34 27 16 15 13 14 14 10 8 7 7 7 8 9 10 14 16 19 23 26 35 44 53 69 84 81 89 97 84 83 92 93 70 79 89 99 100
100 98 98 99 95 88 81 93 100 100 97 99 85 84 59 52 38 23 18 15 13 10 11 9 7 6 6 5 6 6 7 8 9 12 14 17 21 26 36 46 74 70 74 84 91 97 77 80 86 88 87 83 81 89
100 93 100 100 89 66 78 95 91 85 89 87 81 60 39 32 24 17 15 14 11 9 8 7 6 5 5 5 5 6 6 6 7 8 10 13 17 20 26 38 80 56 61 67 95 80 80 88 80 83 97 90 89 98
82 85 100 95 79 50 63 80 85 77 74 67 56 32 25 22 17 14 15 13 10 8 7 6 6 5 5 6 6 5 6 6 6 6 8 10 13 16 21 34 53 48 46 53 67 63 75 86 82 81 78 85 89 92
75 74 90 82 49 51 52 54 64 58 64 52 33 21 20 15 13 13 13 14 10 8 6 6 6 5 6 6 6 6 6 6 6 6 7 8 10 10 15 33 43 24 30 43 52 51 58 59 69 78 82 82 84 81
75 62 80 78 71 44 52 43 47 48 47 28 20 20 16 12 12 13 14 14 10 6 6 6 6 6 6 5 6 6 6 6 6 6 7 8 9 9 12 20 20 26 25 36 43 52 52 51 64 73 78 88 94 96
58 52 49 53 42 33 30 33 33 25 21 16 18 16 13 11 12 13 15 14 8 6 6 6 6 6 6 6 6 6 7 6 6 6 6 7 8 10 13 14 13 19 27 27 36 46 50 50 51 55 63 72 81 86
38 33 33 27 24 20 22 19 17 17 13 13 12 11 11 12 12 13 15 11 7 7 6 6 6 6 6 6 6 7 7 7 7 7 7 7 8 9 12 14 16 16 16 24 33 32 37 48 54 55 52 55 63 69
26 30 24 18 15 16 15 15 14 12 10 9 9 9 10 11 12 14 15 10 7 7 6 7 6 6 6 6 6 7 7 8 9 8 7 8 7 7 6 6 7 10 14 18 21 24 29 33 35 39 44 47 47 46
18 16 13 11 12 11 10 10 10 8 8 8 8 8 10 10 12 15 13 8 7 7 7 7 7 7 7 7 7 8 8 8 9 9 9 9 8 8 7 8 8 7 7 8 10 11 14 17 20 23 26 28 30 30
12 10 9 9 8 7 7 7 7 8 8 8 8 9 9 11 13 13 11 8 7 7 7 8 8 8 8 9 9 9 9 8 9 9 9 8 9 10 10 10 11 10 10 10 10 11 13 15 15 14 14 14 15 16
8 7 7 6 7 6 7 7 7 7 7 7 8 9 10 11 11 12 10 8 8 8 9 9 9 8 9 9 9 9 9 9 10 10 10 10 10 11 13 14 15 14 13 11 11 11 13 14 16 17 19 20 21 21
7 7 6 6 6 6 6 6 6 7 7 8 10 12 12 12 10 11 10 10 10 10 11 11 10 10 10 11 10 10 10 10 11 11 10 11 12 12 12 11 10 11 13 14 15 14 12 11 12 13 14 14 14 14
7 6 6 5 6 6 6 6 6 6 8 10 11 12 10 8 9 10 10 9 9 8 10 12 12 12 11 12 13 13 12 11 10 10 11 11 12 11 12 13 14 14 13 13 13 13 12 12 11 10 10 12 14 16
6 6 6 6 6 6 6 6 6 8 11 12 12 10 8 8 9 9 7 7 6 7 8 10 13 13 13 12 11 11 12 13 13 12 12 11 11 10 11 12 15 16 16 16 17 18 16 15 13 14 14 12 12 12
6 6 6 6 6 6 6 8 10 11 12 11 9 8 9 9 8 6 6 6 6 6 7 8 11 14 16 16 14 14 15 15 16 16 16 14 12 11 11 12 13 16 16 15 15 16 16 17 17 17 16 14 13 12
6 6 6 6 6 8 10 12 10 10 9 8 9 9 8 6 6 6 6 6 7 7 7 8 10 12 15 17 18 18 17 16 16 16 18 17 16 14 13 12 12 14 18 20 19 17 16 16 16 16 15 15 15 14
6 6 6 8 8 10 11 10 8 8 8 9 8 7 6 6 7 7 8 8 9 9 9 9 8 10 11 13 17 20 20 19 17 15 15 14 16 17 16 15 14 13 13 14 18 18 17 16 16 17 15 14 14 15
6 7 8 10 11 11 9 7 8 9 9 8 6 6 6 7 9 10 10 10 10 9 10 9 9 8 9 10 11 12 14 15 17 17 17 17 16 16 15 15 15 15 14 13 13 13 15 20 20 18 18 17 16 14
8 9 11 11 10 9 8 8 9 8 7 7 7 7 8 8 9 10 10 10 10 10 11 11 11 11 10 10 10 10 10 11 11 12 12 13 14 16 17 16 16 16 16 16 14 13 13 14 15 20 22 23 21 20
10 12 12 10 8 9 10 9 7 6 7 8 9 9 9 9 10 10 10 10 10 10 10 11 11 11 11 11 11 11 11 11 11 11 11 11 12 12 13 14 15 16 16 17 18 17 16 15 14 14 15 15 17 20
12 11 9 9 9 8 8 6 6 8 8 9 10 10 11 12 11 11 10 10 9 10 10 11 12 11 12 13 13 12 12 11 11 12 12 12 11 11 11 12 12 12 13 13 13 15 16 16 15 15 15 15 15 16
11 8 9 9 7 7 7 7 8 8 9 9 10 11 11 10 8 8 8 8 8 8 8 7 8 9 10 12 13 14 15 14 14 14 13 12 12 12 12 12 12 12 11 11 12 12 11 12 12 12 12 12 12 12
9 9 8 7 6 7 7 8 9 10 9 8 8 7 7 7 8 8 8 9 10 10 9 9 8 8 8 8 8 8 8 9 10 11 11 12 12 12 12 12 12 12 13 13 12 12 12 13 13 14 15 16 16 16
8 7 7 7 8 8 9 9 8 7 7 7 7 7 7 8 8 8 8 8 8 8 9 9 10 9 9 9 8 8 8 7 7 7 7 7 7 7 7 7 7 8 8 8 8 8 7 7 7 7 8 8 8 8
7 7 8 8 8 8 7 7 7 7 7 7 6 6 5 5 4 4 4 4 4 5 5 5 5 6 7 8 8 8 8 8 8 8 8 8 7 7 7 7 8 8 8 8 7 7 7 7 7 7 8 8 7 7
7 8 8 8 7 7 7 7 6 5 5 5 4 4 4 4 4 3 4 4 4 4 4 4 4 4 4 4 5 5 6 7 8 8 8 7 7 8 8 8 8 8 8 7 7 7 7 7 8 8 8 8 8 7
8 8 7 7 6 5 5 5 4 4 4 4 4 4 4 3 3 3 3 3 3 3 4 4 4 4 4 4 4 4 4 4 4 4 5 5 5 6 6 6 6 6 6 6 6 7 7 8 8 7 7 7 7 8
8 7 6 5 4 4 4 4 4 4 4 4 4 4 4 3 3 3 3 3 3 3 3 3 3 3 3 3 4 4 4 4 4 4 4 4 5 5 5 5 6 5 5 5 6 6 6 6 6 6 6 6 6 6
6 5 4 4 4 4 4 4 4 4 4 4 4 4 4 3 4 3 3 3 3 3 3 3 3 3 3 4 3 3 3 4 4 4 4 5 5 5 5 5 5 5 5 5 5 5 5 5 5 5 6 6 5 5
4 4 4 4 4 4 4 4 4 4 4 4 4 4 4 4 4 3 3 3 3 3 3 3 4 3 3 3 4 4 4 4 4 5 5 5 5 5 6 6 5 4 4 4 4 5 5 5 5 5 5 5 4 4
Wind_Speed
84 83 87 87 85 89 89 85 87 86 83 87 86 89 89 90 92 90 87 86 84 82 74 68 67 66 65 69 67 65 64 63 63 61 57 55 51 51 51 54 62 66 69 65 65 57 52 59 57 57 54 52 51 50
93 88 87 90 91 87 87 88 86 86 88 90 90 91 93 93 94 91 85 82 81 77 70 70 70 72 71 71 70 69 67 66 66 66 62 59 56 54 55 55 60 65 70 69 66 65 60 64 64 60 56 57 58 57
93 93 89 93 95 91 88 88 86 87 88 91 93 95 93 95 94 87 85 81 78 70 64 70 73 71 70 66 63 63 66 67 69 68 66 63 60 59 57 59 60 64 68 69 69 73 71 67 68 65 65 64 63 63
95 96 91 98 98 95 87 85 87 89 90 95 94 96 94 94 91 84 82 79 75 68 65 70 68 63 60 57 51 54 58 57 61 67 68 65 63 63 63 61 62 66 67 71 71 77 76 72 71 71 71 72 71 70
100 96 96 101 98 93 88 88 89 91 93 97 97 98 94 93 88 82 80 77 75 71 68 67 63 58 56 53 50 49 51 54 55 59 63 67 66 66 66 63 67 66 67 68 74 76 74 75 75 75 74 74 70 70
103 100 97 95 96 94 89 90 91 93 95 97 95 94 90 88 84 79 76 75 75 73 69 64 62 57 53 51 49 46 46 48 50 52 56 60 67 68 65 67 75 70 70 67 70 73 75 77 77 75 75 74 75 75
112 98 96 93 95 94 93 95 95 95 96 95 92 90 90 86 81 76 73 74 73 74 68 61 59 57 52 49 45 44 45 44 43 47 50 53 61 66 65 71 83 70 67 70 71 72 74 75 78 79 78 77 77 76
111 101 95 98 98 97 97 96 97 97 95 92 87 87 87 82 79 75 75 75 76 71 64 60 57 55 54 49 45 43 42 42 42 42 44 47 53 57 63 76 73 70 70 73 73 74 75 76 77 79 81 83 83 82
105 101 100 98 96 96 94 97 95 92 90 86 85 86 84 81 77 74 74 76 73 67 61 58 53 53 51 48 45 42 40 40 41 41 42 43 44 47 58 65 67 70 74 75 76 77 78 79 80 80 82 84 86 87
100 98 98 98 97 94 93 94 91 88 86 85 84 84 80 80 76 72 75 75 70 66 61 56 52 49 48 45 42 40 41 38 39 41 41 41 44 50 53 53 50 59 71 77 79 78 79 81 83 84 85 85 87 88
102 100 97 96 95 94 92 92 89 87 86 85 84 82 79 77 74 71 74 75 70 64 59 56 51 48 47 45 42 39 39 39 39 41 39 44 49 53 54 56 56 59 63 68 74 79 82 83 84 86 88 90 90 91
98 95 93 92 90 90 90 88 87 85 85 84 83 80 78 74 71 72 74 73 67 61 57 54 51 47 46 46 43 41 39 39 39 41 41 44 49 48 48 49 51 58 60 65 70 74 77 80 84 88 91 91 92 93
95 94 92 90 86 88 88 89 86 85 83 81 80 79 75 72 69 69 72 69 62 57 54 52 50 47 45 44 44 43 41 41 40 41 43 45 45 46 46 45 45 48 54 59 61 63 67 72 76 80 84 86 88 90
93 91 89 88 87 88 86 85 82 80 79 78 77 76 73 70 68 70 68 66 62 57 53 50 48 47 46 45 43 44 42 41 41 42 42 42 43 44 45 46 48 49 50 52 55 57 59 62 65 68 71 75 79 83
93 92 90 87 86 84 81 79 76 75 77 75 73 73 73 72 69 67 66 65 62 58 52 50 48 46 46 46 45 43 42 41 41 41 40 39 40 43 46 47 49 49 50 51 52 55 58 59 60 62 64 67 71 75
93 90 87 83 80 78 77 75 74 75 74 73 73 71 71 69 65 64 64 63 61 56 53 49 48 46 45 43 44 44 43 42 42 41 40 40 41 41 42 44 46 49 51 51 53 55 57 58 60 62 62 63 65 67
88 83 81 79 77 75 74 74 73 72 72 73 73 75 71 67 65 64 62 60 57 53 51 49 48 47 45 45 45 44 43 43 42 42 41 41 42 41 41 42 44 45 47 49 51 54 57 58 58 58 61 63 64 66
81 80 77 76 75 74 72 72 72 70 72 73 73 71 70 67 64 59 55 53 52 50 48 45 45 45 44 45 45 45 45 45 44 43 43 44 44 43 43 43 42 43 45 46 48 50 52 54 55 56 59 61 62 63
79 77 78 75 73 72 71 72 73 71 72 71 69 69 67 62 58 55 52 50 49 49 48 44 42 43 42 42 43 43 45 45 45 44 43 44 45 45 45 44 43 43 43 44 45 47 48 49 50 52 54 56 57 59
76 74 73 73 72 72 72 73 72 71 71 70 68 64 60 59 57 55 53 51 49 48 46 45 42 41 41 42 42 42 42 44 45 45 44 44 44 45 46 46 45 44 44 43 43 43 44 46 46 48 51 51 52 54
75 73 72 72 74 74 73 72 69 70 70 68 64 60 59 57 55 53 51 49 47 45 43 43 42 40 39 39 41 42 43 43 43 43 44 43 44 44 45 45 45 45 45 45 44 43 43 43 44 46 48 49 49 50
74 73 74 73 73 73 74 71 68 68 65 64 63 61 58 55 53 51 49 48 47 45 43 41 41 40 40 39 38 39 39 40 41 41 42 42 42 42 43 44 45 45 45 46 46 46 45 45 45 44 45 46 48 49
73 74 74 75 73 71 71 70 66 63 61 61 60 59 58 56 54 52 51 50 49 46 43 41 40 40 40 40 39 38 38 37 37 38 38 39 40 41 42 44 45 46 47 47 47 48 48 48 47 47 47 47 47 48
74 75 74 73 72 70 67 64 63 61 60 58 57 56 56 54 52 51 50 50 48 46 45 44 42 41 41 40 40 40 40 39 38 37 37 37 37 38 39 40 42 43 44 45 47 48 48 48 48 48 48 47 47 48
76 74 72 70 68 65 63 62 61 60 59 56 55 54 52 52 52 52 52 52 51 50 48 47 45 43 42 41 41 40 41 40 40 40 39 39 39 39 38 38 38 39 40 41 41 42 43 43 44 44 45 45 45 47
73 72 70 68 65 63 62 62 62 60 58 55 54 53 54 54 55 55 56 56 56 55 53 52 51 49 47 46 44 43 42 41 40 40 39 39 40 40 40 41 41 41 41 42 41 41 41 40 40 40 40 42 43 45
71 68 65 64 64 63 62 59 58 58 58 58 59 59 59 58 58 57 56 56 56 56 56 56 56 55 54 53 51 49 48 46 45 44 43 42 41 41 40 40 40 41 42 43 43 42 41 41 40 40 42 44 46 46
67 66 66 65 63 61 60 61 62 63 62 61 60 58 56 54 53 52 51 50 50 50 50 50 51 52 53 53 54 54 53 53 51 49 49 48 47 47 46 46 46 46 47 48 48 47 45 45 43 43 45 50 51 49
66 65 64 63 64 65 65 64 63 61 60 58 57 56 54 52 50 49 47 46 46 45 45 45 45 46 46 46 48 51 50 51 52 53 53 52 51 51 51 51 53 53 54 54 53 52 52 51 52 52 53 55 56 55
64 65 68 68 67 65 63 61 59 58 56 55 53 53 52 51 50 48 47 46 44 42 42 42 43 43 43 43 42 44 46 45 45 45 45 46 47 48 50 51 52 53 53 53 53 53 51 52 54 54 53 53 54 55
68 68 67 65 63 60 59 57 55 54 53 52 52 52 52 51 49 47 46 44 43 42 41 41 41 41 39 40 39 38 38 40 41 41 40 40 40 41 43 44 46 47 47 47 47 47 47 47 47 47 47 48 48 48
66 64 63 61 59 57 56 54 52 51 50 50 51 51 50 49 48 47 45 44 43 42 40 40 40 39 37 37 37 36 34 33 34 36 37 39 40 39 40 41 42 42 42 42 43 44 43 43 43 42 43 43 44 44
62 61 59 58 57 55 53 51 51 49 48 48 47 47 47 47 46 45 44 43 42 41 40 38 38 37 35 34 33 33 33 33 33 33 34 34 35 35 35 37 39 39 38 37 38 38 38 38 37 37 37 38 38 38
Wind_Direction
328 326 325 325 324 323 323 325 323 322 321 324 320 320 318 318 318 318 317 313 310 309 308 303 298 293 289 286 283 280 275 271 269 266 263 258 255 252 243 238 234 236 236 237 238 234 230 237 236 233 238 242 245 245
326 322 323 324 322 320 320 321 320 320 322 322 319 319 318 319 317 316 314 312 309 309 309 304 298 294 291 284 281 276 273 268 265 262 260 258 254 252 246 239 238 234 233 237 234 236 229 234 234 236 242 244 246 247
321 324 321 323 323 318 317 318 316 317 317 319 318 318 317 316 316 315 313 314 311 308 310 302 299 296 291 286 281 275 268 263 259 258 256 253 251 250 247 241 239 237 237 235 237 236 234 231 235 239 242 246 248 252
320 320 319 321 320 319 316 315 314 315 314 315 316 315 316 315 316 315 315 314 310 310 312 306 302 297 293 288 280 272 269 264 258 254 253 251 249 246 245 243 238 238 239 237 236 237 239 239 238 240 242 245 249 250
319 319 318 317 320 316 313 313 312 313 314 314 314 315 316 315 316 316 316 314 311 314 314 308 302 298 295 291 284 276 269 266 260 256 251 249 247 245 244 244 241 241 237 239 236 240 240 240 240 239 241 245 245 247
318 316 317 317 316 316 313 312 311 311 312 312 313 313 314 314 315 316 316 314 316 316 314 308 302 299 296 291 284 277 270 267 264 260 256 250 246 245 241 241 242 240 241 240 240 242 241 242 244 243 242 241 243 245
320 316 314 315 317 313 312 312 311 309 310 311 312 314 314 315 315 316 317 316 317 315 312 307 302 300 295 289 285 283 277 271 264 260 257 251 248 247 242 240 241 244 245 244 243 243 244 244 243 244 245 245 246 246
316 312 312 313 314 313 311 311 309 308 310 311 312 313 314 315 316 317 318 319 318 315 312 309 306 301 297 293 289 285 280 275 270 264 259 256 254 253 244 242 245 246 245 245 247 246 246 247 247 247 247 247 247 248
313 311 310 311 311 311 309 308 309 309 310 311 311 312 314 315 317 318 319 318 318 317 313 310 307 301 300 296 293 289 283 277 274 269 263 259 258 255 252 250 246 243 245 246 244 246 247 249 248 247 248 250 251 251
310 308 307 310 309 310 309 310 309 310 309 309 310 311 313 315 317 318 318 318 318 317 314 310 306 302 300 298 294 292 287 281 273 269 265 260 251 248 249 250 249 249 246 245 247 247 246 247 250 251 251 250 250 250
308 307 308 309 308 308 309 308 309 309 309 310 311 312 313 315 316 319 317 316 317 315 312 309 306 302 301 299 296 291 285 280 275 271 267 262 260 258 257 254 248 242 240 242 246 247 247 247 247 248 249 251 253 253
308 308 308 308 308 307 307 307 308 308 309 310 310 311 313 315 317 318 316 315 315 313 310 308 305 302 301 300 296 291 286 280 275 271 269 265 264 264 263 262 263 263 263 255 250 247 245 244 245 247 248 249 249 251
308 308 307 307 307 306 305 308 309 307 308 309 309 310 313 314 316 316 315 312 313 312 310 306 303 300 297 294 290 287 283 280 277 273 271 269 269 269 267 265 262 260 259 260 262 263 261 257 254 252 250 252 254 254
308 308 307 307 307 307 308 307 306 306 306 308 310 311 312 314 316 316 312 310 311 310 309 305 300 298 295 292 289 287 286 283 279 276 275 274 274 272 270 268 263 258 255 253 251 251 253 254 255 255 254 254 254 256
309 309 308 308 307 307 308 308 307 306 307 309 310 312 312 314 315 312 310 309 308 308 306 303 301 297 293 291 290 287 284 281 279 278 276 274 271 268 269 268 266 265 262 258 255 254 254 255 254 254 254 255 255 254
308 308 307 307 307 307 307 306 306 307 309 310 311 311 310 312 312 310 308 307 306 305 303 302 299 296 294 291 287 285 283 281 280 279 277 275 272 272 271 270 269 269 268 267 264 260 258 257 256 255 255 253 252 253
307 306 308 308 307 307 307 308 309 310 311 311 311 311 311 311 311 310 308 306 305 303 300 298 297 297 296 293 291 289 287 285 282 281 281 279 277 275 275 275 273 272 270 269 268 267 265 264 263 260 258 257 257 256
306 307 308 308 308 308 309 309 310 311 311 310 310 310 311 312 310 309 307 305 303 302 299 297 295 294 293 291 290 288 287 286 284 282 282 280 278 276 276 276 275 274 272 270 269 268 267 267 265 264 263 263 262 262
308 309 309 309 309 309 310 309 309 312 311 310 311 311 311 309 309 308 308 306 304 302 300 298 294 291 289 287 286 286 285 284 282 281 279 278 277 277 276 275 273 272 271 270 269 269 267 266 265 264 262 262 262 264
308 309 309 309 308 309 309 310 312 312 311 311 310 310 309 308 308 308 308 306 304 301 300 299 295 290 287 285 283 282 282 281 280 279 278 276 275 275 274 273 272 271 270 269 269 268 267 265 264 265 265 265 263 263
309 309 308 308 308 309 310 311 312 311 311 309 310 309 309 308 308 307 307 305 304 304 303 301 299 296 290 287 283 281 279 278 277 277 277 277 277 276 275 273 271 270 269 269 269 268 266 265 265 263 263 265 265 264
309 308 308 309 309 310 310 312 312 311 310 309 309 309 308 308 307 307 306 304 304 304 303 301 299 297 294 292 288 285 283 281 280 278 277 276 275 276 276 275 274 273 272 271 270 269 268 268 266 265 265 266 266 266
308 308 308 308 310 310 310 311 311 311 310 309 308 308 307 308 308 307 305 305 304 303 302 300 298 296 296 295 293 291 288 285 283 280 279 278 277 276 275 275 274 274 274 273 272 272 271 271 270 268 267 267 267 266
308 308 309 309 310 310 310 310 311 310 309 309 307 306 306 306 307 307 307 307 307 306 305 303 301 299 296 295 294 293 292 290 288 286 284 282 279 276 274 272 271 270 269 268 269 269 269 269 269 270 269 268 268 266
308 309 309 310 310 311 311 310 309 309 309 308 306 305 304 304 303 303 303 304 303 302 302 302 301 300 299 297 296 294 293 291 290 288 287 285 283 282 280 277 275 273 270 268 267 266 267 268 269 270 270 270 269 269
309 310 310 310 310 310 309 309 308 307 306 305 304 303 303 302 301 300 300 299 298 297 296 295 294 293 293 292 292 292 291 290 289 288 287 285 284 284 283 282 281 279 277 275 273 271 270 269 268 268 267 267 266 266
309 309 309 310 310 309 308 307 307 307 307 305 304 303 303 302 300 299 297 296 295 293 292 290 289 289 289 289 288 287 287 286 286 286 286 286 285 285 284 284 283 282 281 279 276 275 274 273 273 271 271 269 268 268
308 309 309 309 308 308 307 308 308 307 306 305 305 305 305 304 302 300 299 298 297 295 294 293 292 290 289 287 286 285 284 284 284 284 284 284 283 283 283 283 282 281 281 279 279 279 279 278 277 276 276 275 275 275
307 308 308 308 307 308 309 308 308 307 306 307 308 307 307 305 305 304 303 302 302 301 299 297 294 292 289 287 286 285 284 283 283 283 284 283 283 283 282 281 281 281 280 280 280 282 283 284 283 281 280 280 281 281
308 307 307 308 309 308 309 309 308 309 309 309 309 308 308 309 309 309 309 309 307 306 303 301 299 297 296 294 291 289 289 288 287 285 284 283 283 283 283 282 282 281 281 282 284 284 283 282 282 282 282 281 281 281
306 307 308 308 309 310 309 309 310 310 309 309 309 309 309 310 310 310 310 310 310 308 307 306 304 301 300 298 297 296 294 294 293 293 293 291 287 284 283 283 283 284 285 286 287 287 286 285 284 284 282 281 280 279
307 307 308 310 310 310 310 311 311 310 310 310 311 311 310 311 311 311 312 312 311 311 311 312 310 309 308 306 304 303 300 297 295 294 293 292 292 292 290 288 287 287 288 288 287 286 286 286 285 284 282 282 281 280
307 308 309 309 309 310 312 312 311 311 311 311 311 310 311 312 312 312 312 313 313 314 314 314 311 310 309 309 307 306 306 303 301 299 298 298 297 296 295 293 292 291 290 289 288 288 288 288 288 288 285 283 282 281